User: anonymous   Login
Location: Unspecified
(0.0000°N, 0.0000°E)
Time: 01:58:04
(UTC+00:00)
Language:

USA 176 - Orbit

View from above orbital plane
View from above orbital plane
View from above satellite
View from above satellite

Ground track
Ground track

The orbit data is extracted from the following two-line orbital elements,

1 28158U 04004A   21135.96026764 -.00000211  00000-0  00000-0 0  9999
2 28158   9.5847  37.4318 0000850  83.8545 185.6910  1.00271952 14294
Epoch (UTC): 15 May 2021 23:02:47
Eccentricity: 0.0000850
inclination: 9.5847°
perigee height: 35782 km
apogee height: 35790 km
right ascension of ascending node: 37.4318°
argument of perigee: 83.8545°
revolutions per day: 1.00271952
mean anomaly at epoch: 185.6910°
orbit number at epoch: 1429

The dashed part of the orbit path shows where the satellite is in the earth's shadow,  

DLR